Norfolk, NE

4:27 PM CDT on August 28, 2016 (GMT -0500)
Stefan Memorial

Weather History for KOFK - March, 2012

Change the Weather History Date:

Thursday, March 1, 2012

  Actual Average Record
Temperature  
Mean Temperature 32 °F 31 °F  
Max Temperature 44 °F 42 °F 80 °F (1992)
Min Temperature 20 °F 21 °F -11 °F (1962)
Degree Days  
Heating Degree Days 33 34  
Month to date heating degree days 33 34  
Since 1 July heating degree days 4643 5127  
Cooling Degree Days 0 0  
Month to date cooling degree days 0 0  
Year to date cooling degree days 0 0  
Moisture  
Dew Point 25 °F    
Average Humidity 77    
Maximum Humidity 92    
Minimum Humidity 62    
Precipitation  
Precipitation T in 0.04 in 0.49 in (2004)
Month to date precipitation T 0.04  
Year to date precipitation 1.91 1.39  
Snow  
Snow 0.00 in 0.20 in - ()
Month to date snowfall 0.0 0.2  
Since 1 July snowfall 15.3 23.0  
Snow Depth 0.00 in    
Sea Level Pressure  
Sea Level Pressure 29.79 in    
Wind  
Wind Speed 6 mph (NNE)    
Max Wind Speed 17 mph    
Max Gust Speed 22 mph    
Visibility 8 miles    
Events Rain    
T = Trace of Precipitation, MM = Missing Value Source: NWS Daily Summary

Daily Weather History Graph

Daily Weather History Graph

Search for Another Location

Airport or City:

Trip Planner

Search our weather history database for the weather conditions in past years. The results will help you decide how hot, cold, wet, or windy it might be!

Date:

Astronomy

Mar. 01, 2012 Rise Set
Actual Time 7:03 AM CST 6:20 PM CST
Civil Twilight 6:35 AM CST 6:48 PM CST
Nautical Twilight 6:03 AM CST 7:20 PM CST
Astronomical Twilight 5:31 AM CST 7:53 PM CST
Moon 11:37 AM CST (3/1) 2:08 AM CST (3/1)
Length of Visible Light 12h 12m
Length of Day
11h 16m
First Quarter, 57% of the Moon is Illuminated
Mar 1
First Quarter
Mar 8
Full
Mar 14
Last Quarter
Mar 22
New
Mar 30
First Quarter

Hourly Weather History & Observations

Time (CST) Temp. Windchill Dew Point Humidity Pressure Visibility Wind Dir Wind Speed Gust Speed Precip Events Conditions
12:56 AM 26.1 °F 21.9 °F 23.0 °F 88% 29.88 in 10.0 mi WNW 3.5 mph - N/A   Clear
1:56 AM 21.9 °F - 19.0 °F 89% 29.87 in 7.0 mi Calm Calm - N/A   Clear
2:56 AM 21.9 °F - 19.0 °F 89% 29.84 in 5.0 mi Calm Calm - N/A   Clear
3:56 AM 23.0 °F 17.0 °F 19.9 °F 88% 29.80 in 5.0 mi East 4.6 mph - N/A   Clear
4:56 AM 24.1 °F 14.4 °F 21.0 °F 88% 29.82 in 6.0 mi South 9.2 mph - N/A   Clear
5:56 AM 23.0 °F 15.8 °F 19.9 °F 88% 29.81 in 7.0 mi SSE 5.8 mph - N/A   Clear
6:56 AM 23.0 °F 18.4 °F 19.9 °F 88% 29.80 in 6.0 mi East 3.5 mph - N/A   Clear
7:56 AM 25.0 °F - 21.9 °F 88% 29.81 in 4.0 mi Calm Calm - N/A   Clear
8:56 AM 27.0 °F 20.5 °F 24.1 °F 89% 29.80 in 5.0 mi East 5.8 mph - N/A   Mostly Cloudy
9:56 AM 28.0 °F 21.7 °F 26.1 °F 92% 29.79 in 5.0 mi ESE 5.8 mph - N/A   Overcast
10:56 AM 30.9 °F 25.2 °F 27.0 °F 85% 29.78 in 5.0 mi ESE 5.8 mph - N/A   Overcast
11:56 AM 32.0 °F 27.5 °F 28.0 °F 85% 29.77 in 6.0 mi NNE 4.6 mph - N/A   Overcast
12:56 PM 34.0 °F 29.8 °F 28.0 °F 79% 29.73 in 6.0 mi NE 4.6 mph - N/A   Haze
1:56 PM 39.0 °F 34.0 °F 28.9 °F 67% 29.71 in 10.0 mi North 6.9 mph - N/A   Overcast
2:56 PM 41.0 °F 33.5 °F 28.9 °F 62% 29.70 in 10.0 mi NNW 13.8 mph - 0.00 in Rain Light Rain
3:56 PM 43.0 °F 37.2 °F 28.9 °F 58% 29.72 in 10.0 mi North 10.4 mph - 0.00 in   Scattered Clouds
4:56 PM 42.1 °F 34.9 °F 30.0 °F 62% 29.72 in 10.0 mi North 13.8 mph - N/A   Clear
5:56 PM 39.0 °F 30.3 °F 30.0 °F 70% 29.76 in 10.0 mi North 16.1 mph 21.9 mph N/A   Scattered Clouds
6:56 PM 35.1 °F 29.3 °F 28.0 °F 76% 29.81 in 10.0 mi North 6.9 mph - N/A   Overcast
7:56 PM 32.0 °F 26.4 °F 27.0 °F 82% 29.82 in 10.0 mi NNW 5.8 mph - N/A   Clear
8:56 PM 32.0 °F 25.6 °F 27.0 °F 82% 29.80 in 10.0 mi NNW 6.9 mph - N/A   Clear
9:56 PM 30.9 °F 23.5 °F 27.0 °F 85% 29.81 in 10.0 mi NW 8.1 mph - N/A   Scattered Clouds
10:56 PM 30.0 °F - 26.1 °F 85% 29.81 in 10.0 mi Calm Calm - N/A   Scattered Clouds
11:56 PM 30.0 °F - 26.1 °F 85% 29.81 in 10.0 mi Calm Calm - N/A   Overcast